NOAA NWS Hourly Roundups by Site

Regional Weather Roundup for State College, PA

To Select Another Site Choose from List

Select Site:  

000
ASUS41 KCTP 021810
RWRCTP

REGIONAL WEATHER ROUNDUP
NATIONAL WEATHER SERVICE STATE COLLEGE PA
200 PM EDT MON AUG 02 2021

Note: "fair" indicates few or no clouds below 12,000 feet with no
significant weather and/or obstructions to visibility.

* = STATION THAT DOES NOT REPORT PRECIPITATION /E.G. RAIN...SNOW...ETC/
    THUNDER OR FOG.

PAZ002>004-007>009-013>016-020>023-029>032-021900-
WESTERN PENNSYLVANIA

CITY           SKY/WX    TMP DP  RH WIND       PRES   REMARKS
ERIE           SUNNY     73  54  51 NW9       30.13S
MEADVILLE      MOSUNNY   72  52  49 NW9       30.13F
FRANKLIN       MOSUNNY   71  51  49 VRB3      30.13F
NEW CASTLE     FAIR      73  52  47 N9        30.13F
BEAVER COUNTY  MOSUNNY   75  52  43 N8        30.13F
BUTLER         PTSUNNY   74  52  46 VRB6      30.13S
PITTSBURGH INT MOSUNNY   74  50  42 VRB5      30.12F
PITTSBURGH     PTSUNNY   74  53  48 MISG      30.11F
INDIANA*       MOSUNNY   73  54  49 VRB3G12   30.15S
LATROBE        PTSUNNY   70  55  60 CALM      30.12F
WASHINGTON CO* PTSUNNY   72  53  51 NW7       30.16S
$$

PAZ004>006-010>012-017>019-024>028-033>037-041-042-045-046-049>053-021900-
CENTRAL PENNSYLVANIA

CITY           SKY/WX    TMP DP  RH WIND       PRES   REMARKS
BRADFORD       CLOUDY    69  47  45 N9        30.12F
ST MARYS       NOT AVBL
DUBOIS         MOSUNNY   73  48  41 VRB7G17   30.11F
CLEARFIELD     MOSUNNY   74  48  39 VRB6      30.10F
JOHNSTOWN      MOSUNNY   69  50  50 N8        30.13S
SOMERSET       MOCLDY    64  48  55 N5        30.14F
ALTOONA        PTSUNNY   73  50  44 VRB6      30.10F
STATE COLLEGE  PTSUNNY   73  50  43 N9        30.09F
REEDSVILLE     FAIR      73  55  53 CALM      30.06F
WELLSBORO      MOCLDY    68  50  52 N12       30.09S
WILLIAMSPORT   PTSUNNY   76  48  37 MISG      30.03S
SELINSGROVE    SUNNY     76  58  53 VRB7      30.05F
FT INDIANTOWN  MOSUNNY   76  55  47 N6        30.04F
CAPITAL CITY   MOSUNNY   79  53  40 N8        30.05S
HARRISBURG     PTSUNNY   77  53  43 NE7       30.04S
YORK           PTSUNNY   74  56  53 VRB7      30.06S
$$

PAZ038>040-043-044-047-048-054-055-060>062-067>071-021900-
EASTERN PENNSYLVANIA

CITY           SKY/WX    TMP DP  RH WIND       PRES   REMARKS
TOWANDA        PTCLDY    73  46  38 N6        30.07F
SCRANTON       MOSUNNY   75  53  46 NW10      30.04S
MOUNT POCONO   PTSUNNY   69  52  54 NW14      30.05S
HAZLETON       MOCLDY    70  52  52 NW6       30.10S
LEHIGHTON      FAIR      73  54  49 N9        30.03S
ALLENTOWN      SUNNY     77  55  46 NW13G18   30.01S
QN CITY/ALNTWN FAIR      77  55  47 NW12G17   30.03R
QUAKERTOWN*    PTCLDY    75  57  53 N10       30.02S
PERKASIE*      MOCLDY    75  57  53 N10G17    30.03S
DOYLESTOWN     MOSUNNY   79  56  45 NW10      30.00S
READING        MOSUNNY   77  56  48 N14       30.01F
LANCASTER      MOSUNNY   76  56  49 NW9       30.04S
COATESVILLE    PTCLDY    75  57  53 N9        30.05F
WEST CHESTER   MOCLDY    73  54  49 NW7       30.03S
POTTSTOWN      MOSUNNY   75  54  47 N10       30.03S
BLUE BELL      MOSUNNY   77  57  49 NW8       30.02S
NORTH PHILA    MOSUNNY   77  57  50 NW8       30.01S
PHILADELPHIA   PTSUNNY   78  57  48 NW12      30.01S
$$


 

View Past Reports for State College, PA.

Products Courtesy of NOAA-NWS
NWS Information Parsing Script by Ken True at Saratoga Weather - Script by SE Lincoln Weather.